#timestamp,LO_Frequency,Hit,StdDev 
1641852015.4,286047006.5,N
1641852035.2,286047002.9,N
1641852055.0,286047003.4,N
1641852055.9,286047003.4,N
1641852075.8,286047004.1,N
1641852095.6,286047016.5,Y
1641852115.5,286047009.3,P
1641852135.3,286047010.4,P
1641852155.1,286047005.0,P
1641852175.9,286047001.5,N
1641852195.7,286047000.8,N
1641852215.5,286046999.0,N
1641852235.4,286047008.7,N
1641852255.2,286047010.4,N
1641852275.1,286047008.4,N
1641852276.0,286047008.4,N
1641852295.8,286047006.7,N
1641852315.6,286047005.4,N
1641852335.5,286047004.2,N
1641852355.3,286047001.6,N
1641852375.1,286047001.2,N
1641852395.9,286046999.5,N
1641852415.7,286046998.0,N
1641852435.6,286046996.2,N
1641852455.4,286046996.1,N
1641852475.2,286046995.6,N
1641852495.1,286046993.7,N
1641852496.0,286046993.7,N
1641852515.8,286046993.4,N
1641852535.7,286046995.9,N
1641852555.5,286046996.3,N
1641852575.3,286046994.1,N
1641852595.2,286046994.4,N
1641852615.0,286046994.0,N
1641852615.9,286046994.0,N
1641852635.8,286046994.7,N
1641852655.6,286046993.6,N
1641852675.4,286046994.3,N
1641852695.3,286046991.7,N
1641852715.1,286046992.5,N
1641852735.8,286046991.8,N
1641852755.7,286046992.2,N
1641852775.5,286046992.2,N
1641852795.4,286046992.2,N
1641852815.2,286046992.2,N
1641852835.0,286046992.4,N
1641852835.9,286046992.4,N
1641852855.8,286046993.2,N
1641852875.6,286046992.8,N
1641852895.4,286046991.8,Y
1641852915.3,286046998.9,P
1641852935.1,286046999.0,N
1641852955.9,286046999.6,N
1641852975.7,286046998.7,N
1641852995.5,286046997.1,N
1641853015.4,286046997.2,N
1641853035.2,286046999.6,N
1641853055.0,286046996.5,N
1641853055.9,286046996.5,N
1641853075.8,286046997.3,N
1641853095.6,286046997.3,N
1641853115.5,286046997.3,N
1641853135.3,286046997.5,N
1641853155.1,286046997.0,N
1641853175.9,286046997.2,N
1641853195.7,286046997.7,N
1641853215.5,286046998.0,N
1641853235.4,286046997.9,N
1641853255.2,286046997.1,N
1641853275.1,286046997.5,N
1641853276.0,286046997.5,N
1641853295.8,286046997.7,N
1641853315.6,286046997.6,N
1641853335.5,286046996.7,Y
1641853355.3,286047000.5,P
1641853375.1,286047000.9,N
1641853395.9,286047000.6,N
1641853415.7,286047000.4,N
1641853435.6,286047000.7,N
1641853455.4,286047000.5,N
1641853475.2,286046998.4,N
1641853495.1,286046998.4,N
1641853496.0,286046998.4,N
1641853515.8,286046998.8,N
1641853535.6,286046999.1,N
1641853555.5,286046998.4,N
1641853575.3,286046998.7,N
1641853595.2,286047000.9,N
1641853615.9,286046999.8,N
1641853635.7,286047002.4,N
1641853655.6,286046998.5,N
1641853675.4,286047000.6,N
1641853695.2,286047000.7,N
1641853715.1,286046999.9,N
1641853716.0,286046999.9,N
1641853735.8,286047002.8,N
1641853755.7,286047000.9,N
1641853775.5,286046999.9,N
1641853795.3,286047000.4,N
1641853815.2,286046998.2,N
1641853835.0,286047001.2,N
1641853835.9,286047001.2,N
1641853855.8,286046999.3,N
1641853875.6,286046999.3,N
1641853895.4,286046999.5,N
1641853915.3,286046999.0,N
1641853935.1,286046999.0,N
1641853955.8,286046997.6,N
1641853975.7,286046996.6,N
1641853995.5,286046997.0,N
1641854015.4,286047001.0,N
1641854035.2,286046998.5,N
1641854055.0,286046998.5,N
1641854055.9,286046998.5,N
1641854075.8,286046998.3,N
1641854095.6,286046998.4,N
1641854115.4,286047000.9,N
1641854135.3,286047002.5,N
1641854155.1,286047002.0,N
1641854175.9,286046999.8,N
1641854195.7,286047002.8,N
1641854215.5,286047001.1,N
1641854235.4,286047002.0,N
1641854255.2,286047001.6,N
1641854275.0,286047000.8,N
1641854275.9,286047000.8,N
1641854295.8,286047000.7,N
1641854315.6,286047001.2,N
1641854335.5,286047000.9,N
1641854355.3,286047000.6,N
1641854375.1,286047001.0,N
1641854395.9,286047000.8,N
1641854415.7,286047001.0,N
1641854435.6,286046998.1,N
1641854455.4,286046998.9,N
1641854475.2,286046998.7,N
1641854495.1,286047001.2,N
1641854496.0,286047001.2,N
1641854515.8,286047000.9,N
1641854535.6,286046999.8,N
1641854555.5,286047001.0,N
1641854575.3,286047001.0,N
1641854595.2,286047000.9,N
1641854615.9,286047001.9,N
1641854635.7,286047000.0,N
1641854655.6,286047000.3,N
1641854675.4,286047002.8,N
1641854695.2,286047000.6,N
1641854715.1,286046999.9,N
1641854716.0,286046999.9,N
1641854735.8,286047000.8,N
1641854755.7,286047000.1,N
1641854775.5,286047002.3,N
1641854795.3,286047000.5,N
1641854815.2,286047000.3,N
1641854835.0,286047000.5,N
1641854835.9,286047000.5,N
1641854855.8,286047000.3,N
1641854875.6,286047002.6,N
1641854895.4,286047000.4,N
1641854915.3,286047000.7,N
1641854935.1,286046999.7,N
1641854955.8,286047002.6,N
1641854975.7,286046998.5,N
1641854995.5,286046998.2,N
1641855015.4,286047001.1,N
1641855035.2,286047001.1,N
1641855055.0,286047001.1,N
1641855055.9,286047001.1,N
1641855075.8,286047000.2,N
1641855095.6,286046998.9,N
1641855115.5,286046998.4,N
1641855135.3,286046998.6,N
1641855155.1,286046998.6,N
1641855175.9,286046998.5,N
1641855195.7,286047001.0,N
1641855215.5,286047000.7,N
1641855235.4,286046998.2,N
1641855255.2,286046999.0,N
1641855275.1,286046998.3,N
1641855276.0,286046998.3,N
1641855295.8,286046999.3,N
1641855315.6,286046998.6,N
1641855335.5,286046998.5,N
1641855355.3,286047001.1,N
1641855375.2,286046999.6,N
1641855395.9,286046996.6,N
1641855415.7,286046995.2,Y
1641855435.6,286046997.1,P
1641855455.4,286046998.6,N
1641855475.2,286047000.7,N
1641855495.1,286047001.0,N
1641855496.0,286047001.0,N
1641855515.8,286047000.5,N
1641855535.7,286046998.6,N
1641855555.5,286046998.6,N
1641855575.3,286046998.4,N
1641855595.2,286047001.2,N
